Weather History for Parkersburg, WV

Change the Weather History Date:

Saturday, June 29, 2013

  Actual Average Record
Temperature  
Mean Temperature 70 °F 74 °F  
Max Temperature 79 °F 85 °F 98 °F (2012)
Min Temperature 60 °F 63 °F 50 °F (1956)
Degree Days  
Heating Degree Days 0 0  
Month to date heating degree days 6 18  
Since 1 June heating degree days 6 18  
Cooling Degree Days 5 9  
Month to date cooling degree days 177 184  
Year to date cooling degree days 303 268  
Since 1 June cooling degree days 177 184  
Growing Degree Days 19 (Base 50)    
Moisture  
Dew Point 63 °F    
Average Humidity 82    
Maximum Humidity 100    
Minimum Humidity 64    
Precipitation  
Precipitation T in 0.12 in 0.55 in (2012)
Month to date precipitation 5.90 3.89  
Year to date precipitation 18.72 20.84  
Sea Level Pressure  
Sea Level Pressure 29.65 in    
Wind  
Wind Speed 2 mph (SSW)    
Max Wind Speed 12 mph    
Max Gust Speed 16 mph    
Visibility 9 miles    
Events Thunderstorm    
T = Trace of Precipitation, MM = Missing Value Source: NWS Daily Summary

Daily Weather History Graph

Daily Weather History Graph

Search for Another Location

Airport:

Trip Planner

Search our weather history database for the weather conditions in past years. The results will help you decide how hot, cold, wet, or windy it might be!

Date:

Astronomy

Jun. 29, 2013 Rise Set
Actual Time 6:01 AM EDT 8:56 PM EDT
Civil Twilight 5:29 AM EDT 9:28 PM EDT
Nautical Twilight 4:48 AM EDT 10:09 PM EDT
Astronomical Twilight 4:01 AM EDT 10:56 PM EDT
Moon 12:27 AM EDT (6/29) 1:09 PM EDT (6/29)
Length of Visible Light 15h 59m
Length of Day
14h 54m
Waning Gibbous, 56% of the Moon is Illuminated
Jun 29
Waning Gibbous
Jun 30
Last Quarter
Jul 8
New
Jul 15
First Quarter
Jul 22
Full

Hourly Weather History & Observations

Time (EDT) Temp. Dew Point Humidity Pressure Visibility Wind Dir Wind Speed Gust Speed Precip Events Conditions
12:53 AM 62.1 °F 61.0 °F 96% 29.62 in 3.0 mi SSE 3.5 mph - N/A   Clear
1:00 AM 62.6 °F 60.8 °F 94% 29.64 in 2.5 mi Calm Calm - N/A   Clear
1:07 AM 62.6 °F 62.6 °F 100% 29.64 in 7.0 mi SSE 3.5 mph - N/A   Clear
1:53 AM 62.1 °F 61.0 °F 96% 29.62 in 9.0 mi South 3.5 mph - N/A   Clear
2:53 AM 62.1 °F 61.0 °F 96% 29.61 in 10.0 mi South 3.5 mph - N/A   Clear
3:53 AM 61.0 °F 60.1 °F 97% 29.61 in 10.0 mi Calm Calm - N/A   Clear
4:53 AM 60.1 °F 59.0 °F 96% 29.61 in 9.0 mi Calm Calm - N/A   Clear
5:53 AM 60.1 °F 59.0 °F 96% 29.62 in 8.0 mi Calm Calm - N/A   Clear
6:53 AM 61.0 °F 60.1 °F 97% 29.63 in 10.0 mi Calm Calm - N/A   Clear
7:53 AM 63.0 °F 61.0 °F 93% 29.64 in 10.0 mi Calm Calm - N/A   Scattered Clouds
8:53 AM 64.9 °F 62.1 °F 90% 29.65 in 10.0 mi Calm Calm - N/A   Scattered Clouds
9:53 AM 66.9 °F 63.0 °F 87% 29.66 in 10.0 mi South 3.5 mph - N/A   Mostly Cloudy
10:53 AM 70.0 °F 63.0 °F 78% 29.65 in 10.0 mi Calm Calm - N/A   Mostly Cloudy
11:53 AM 73.0 °F 64.0 °F 73% 29.65 in 10.0 mi Variable 3.5 mph - N/A   Mostly Cloudy
12:36 PM 73.4 °F 62.6 °F 69% 29.66 in 10.0 mi Variable 3.5 mph - N/A   Mostly Cloudy
12:53 PM 75.9 °F 64.0 °F 67% 29.65 in 10.0 mi Variable 6.9 mph - N/A   Mostly Cloudy
1:53 PM 78.1 °F 63.0 °F 60% 29.62 in 10.0 mi South 8.1 mph 16.1 mph N/A Thunderstorm Mostly Cloudy
2:19 PM 75.2 °F 64.4 °F 69% 29.64 in 10.0 mi Calm Calm - 0.00 in Thunderstorm Mostly Cloudy
2:53 PM 78.1 °F 64.0 °F 62% 29.63 in 10.0 mi SW 8.1 mph - 0.00 in   Mostly Cloudy
3:11 PM 78.8 °F 62.6 °F 57% 29.64 in 10.0 mi SW 10.4 mph 16.1 mph N/A Thunderstorm Scattered Clouds
3:38 PM 77.0 °F 62.6 °F 61% 29.65 in 10.0 mi SW 9.2 mph - N/A   Mostly Cloudy
3:53 PM 73.9 °F 64.9 °F 73% 29.64 in 10.0 mi NNW 4.6 mph - N/A   Mostly Cloudy
4:53 PM 77.0 °F 64.0 °F 64% 29.63 in 10.0 mi South 3.5 mph - N/A   Mostly Cloudy
5:53 PM 75.9 °F 62.1 °F 62% 29.63 in 10.0 mi WNW 5.8 mph - N/A   Clear
6:53 PM 75.0 °F 64.0 °F 69% 29.65 in 10.0 mi West 3.5 mph - N/A   Partly Cloudy
7:53 PM 73.9 °F 66.0 °F 76% 29.68 in 10.0 mi Calm Calm - N/A   Mostly Cloudy
8:53 PM 72.0 °F 66.9 °F 84% 29.68 in 10.0 mi Calm Calm - N/A   Scattered Clouds
9:53 PM 72.0 °F 66.0 °F 81% 29.69 in 10.0 mi Calm Calm - N/A   Mostly Cloudy
10:53 PM 68.0 °F 66.0 °F 93% 29.71 in 9.0 mi Calm Calm - N/A   Partly Cloudy
11:53 PM 66.9 °F 66.0 °F 97% 29.70 in 7.0 mi Calm Calm - N/A   Clear